• In Czech Republic
  • List of Countries
  • For 7 days
  • Water Temperature
  • Satellite Maps
  • Weather Map
  • Weather Widgets
  • user-avatar
    Login

    Hourly Weather Little Rock

    Today, 11 December, Monday

    Time Temperature Precipitation Wind Pressure Humidity
    00:00 +7°C° 0 mm 2 mps 760 mmHg 73%
    01:00 +7°C° 0 mm 2 mps 760 mmHg 72%
    02:00 +8°C° 0 mm 1 mps 760 mmHg 71%
    03:00 +8°C° 0 mm 1 mps 760 mmHg 69%
    04:00 +7°C° 0 mm 1 mps 759 mmHg 68%
    05:00 +7°C° 0 mm 1 mps 759 mmHg 68%
    06:00 +7°C° 0 mm 1 mps 759 mmHg 67%
    07:00 +8°C° 0 mm 1 mps 759 mmHg 63%
    08:00 +9°C° 0 mm 2 mps 759 mmHg 59%
    09:00 +10°C° 0 mm 2 mps 759 mmHg 55%
    10:00 +13°C° 0 mm 2 mps 758 mmHg 49%
    11:00 +16°C° 0 mm 3 mps 757 mmHg 43%
    12:00 +18°C° 0 mm 4 mps 757 mmHg 37%
    13:00 +19°C° 0 mm 4 mps 756 mmHg 36%
    14:00 +20°C° 0 mm 4 mps 755 mmHg 35%
    15:00 +20°C° 0 mm 4 mps 754 mmHg 33%
    16:00 +18°C° 0 mm 4 mps 754 mmHg 40%
    17:00 +15°C° 0 mm 4 mps 755 mmHg 46%
    18:00 +13°C° 0 mm 3 mps 755 mmHg 52%
    19:00 +12°C° 0 mm 3 mps 755 mmHg 52%
    20:00 +11°C° 0 mm 3 mps 756 mmHg 51%
    21:00 +10°C° 0 mm 3 mps 756 mmHg 51%
    22:00 +10°C° 0 mm 3 mps 757 mmHg 51%
    23:00 +9°C° 0 mm 3 mps 758 mmHg 51%

    Tomorrow, 12 December, Tuesday

    Time Temperature Precipitation Wind Pressure Humidity
    00:00 +8°C° 0 mm 3 mps 758 mmHg 52%
    01:00 +7°C° 0 mm 3 mps 759 mmHg 55%
    02:00 +7°C° 0 mm 3 mps 759 mmHg 58%
    03:00 +5°C° 0 mm 3 mps 759 mmHg 61%
    04:00 +4°C° 0 mm 3 mps 760 mmHg 63%
    05:00 +4°C° 0 mm 3 mps 760 mmHg 65%
    06:00 +3°C° 0 mm 3 mps 761 mmHg 67%
    07:00 +3°C° 0 mm 4 mps 761 mmHg 63%
    08:00 +3°C° 0 mm 4 mps 762 mmHg 58%
    09:00 +4°C° 0 mm 4 mps 762 mmHg 54%
    10:00 +5°C° 0 mm 4 mps 762 mmHg 48%
    11:00 +7°C° 0 mm 3 mps 762 mmHg 42%
    12:00 +8°C° 0 mm 3 mps 762 mmHg 36%
    13:00 +8°C° 0 mm 3 mps 761 mmHg 34%
    14:00 +9°C° 0 mm 3 mps 761 mmHg 33%
    15:00 +9°C° 0 mm 3 mps 760 mmHg 31%
    16:00 +8°C° 0 mm 3 mps 760 mmHg 35%
    17:00 +7°C° 0 mm 2 mps 760 mmHg 40%
    18:00 +5°C° 0 mm 2 mps 760 mmHg 44%
    19:00 +5°C° 0 mm 2 mps 760 mmHg 46%
    20:00 +4°C° 0 mm 2 mps 760 mmHg 48%
    21:00 +4°C° 0 mm 2 mps 760 mmHg 50%
    22:00 +3°C° 0 mm 2 mps 760 mmHg 52%
    23:00 +4°C° 0 mm 1 mps 760 mmHg 53%

    Day after tomorrow, 13 December, Wednesday

    Time Temperature Precipitation Wind Pressure Humidity
    00:00 +4°C° 0 mm 1 mps 759 mmHg 55%
    01:00 +3°C° 0 mm 1 mps 759 mmHg 56%
    02:00 +3°C° 0 mm 1 mps 759 mmHg 58%
    03:00 +3°C° 0 mm 1 mps 759 mmHg 59%
    04:00 +3°C° 0 mm 1 mps 758 mmHg 61%
    05:00 +2°C° 0 mm 2 mps 758 mmHg 63%
    06:00 +2°C° 0 mm 2 mps 757 mmHg 64%
    07:00 +3°C° 0 mm 2 mps 757 mmHg 61%
    08:00 +3°C° 0 mm 3 mps 757 mmHg 57%
    09:00 +5°C° 0 mm 3 mps 757 mmHg 54%
    10:00 +7°C° 0 mm 4 mps 757 mmHg 49%
    11:00 +10°C° 0 mm 4 mps 756 mmHg 45%
    12:00 +12°C° 0 mm 5 mps 755 mmHg 41%
    13:00 +13°C° 0 mm 5 mps 754 mmHg 40%
    14:00 +14°C° 0 mm 5 mps 754 mmHg 39%
    15:00 +15°C° 0 mm 5 mps 753 mmHg 38%
    16:00 +13°C° 0 mm 5 mps 752 mmHg 44%
    17:00 +12°C° 0 mm 4 mps 752 mmHg 49%
    18:00 +10°C° 0 mm 4 mps 752 mmHg 54%
    19:00 +10°C° 0 mm 4 mps 752 mmHg 57%
    20:00 +9°C° 0 mm 3 mps 753 mmHg 60%
    21:00 +9°C° 0 mm 3 mps 753 mmHg 62%
    22:00 +8°C° 0 mm 3 mps 753 mmHg 65%
    23:00 +8°C° 0 mm 3 mps 752 mmHg 67%

    14 December, Thursday

    Time Temperature Precipitation Wind Pressure Humidity
    00:00 +7°C° 0 mm 3 mps 752 mmHg 70%
    01:00 +7°C° 0 mm 2 mps 752 mmHg 72%
    02:00 +6°C° 0 mm 2 mps 752 mmHg 74%
    03:00 +6°C° 0 mm 2 mps 752 mmHg 76%
    04:00 +5°C° 0 mm 2 mps 752 mmHg 77%
    05:00 +5°C° 0 mm 2 mps 752 mmHg 77%
    06:00 +6°C° 0 mm 1 mps 752 mmHg 78%
    07:00 +7°C° 0 mm 1 mps 752 mmHg 71%
    08:00 +7°C° 0 mm 2 mps 752 mmHg 65%
    09:00 +8°C° 0 mm 2 mps 753 mmHg 59%
    10:00 +9°C° 0 mm 2 mps 753 mmHg 54%
    11:00 +12°C° 0 mm 2 mps 753 mmHg 48%
    12:00 +14°C° 0 mm 2 mps 753 mmHg 42%
    13:00 +12°C° 0 mm 3 mps 753 mmHg 43%
    14:00 +12°C° 0 mm 3 mps 752 mmHg 44%
    15:00 +12°C° 0 mm 4 mps 752 mmHg 45%
    16:00 +11°C° 0 mm 3 mps 753 mmHg 52%
    17:00 +9°C° 0 mm 3 mps 753 mmHg 59%
    18:00 +8°C° 0 mm 3 mps 754 mmHg 66%
    19:00 +7°C° 0 mm 3 mps 755 mmHg 67%
    20:00 +6°C° 0 mm 2 mps 755 mmHg 69%
    21:00 +6°C° 0 mm 2 mps 756 mmHg 71%
    22:00 +5°C° 0 mm 2 mps 756 mmHg 72%
    23:00 +5°C° 0 mm 2 mps 756 mmHg 73%

    15 December, Friday

    Time Temperature Precipitation Wind Pressure Humidity
    00:00 +5°C° 0 mm 1 mps 756 mmHg 74%
    01:00 +4°C° 0 mm 2 mps 756 mmHg 75%
    02:00 +4°C° 0 mm 2 mps 756 mmHg 76%
    03:00 +4°C° 0 mm 2 mps 756 mmHg 77%
    04:00 +4°C° 0 mm 2 mps 757 mmHg 79%
    05:00 +4°C° 0 mm 2 mps 757 mmHg 80%
    06:00 +3°C° 0 mm 3 mps 758 mmHg 82%
    07:00 +3°C° 0 mm 3 mps 758 mmHg 74%
    08:00 +4°C° 0 mm 3 mps 759 mmHg 67%
    09:00 +4°C° 0 mm 4 mps 759 mmHg 59%
    10:00 +5°C° 0 mm 4 mps 759 mmHg 52%
    11:00 +7°C° 0 mm 3 mps 759 mmHg 46%
    12:00 +8°C° 0 mm 3 mps 759 mmHg 39%
    13:00 +9°C° 0 mm 3 mps 759 mmHg 40%
    14:00 +9°C° 0 mm 3 mps 758 mmHg 40%
    15:00 +10°C° 0 mm 3 mps 758 mmHg 40%
    16:00 +8°C° 0 mm 3 mps 758 mmHg 46%
    17:00 +7°C° 0 mm 2 mps 758 mmHg 52%
    18:00 +7°C° 0 mm 1 mps 758 mmHg 58%
    19:00 +6°C° 0 mm 1 mps 758 mmHg 61%
    20:00 +5°C° 0 mm 2 mps 758 mmHg 63%
    21:00 +4°C° 0 mm 2 mps 758 mmHg 66%
    22:00 +4°C° 0 mm 2 mps 758 mmHg 68%
    23:00 +4°C° 0 mm 2 mps 758 mmHg 69%

    16 December, Saturday

    Time Temperature Precipitation Wind Pressure Humidity
    00:00 +4°C° 0 mm 2 mps 758 mmHg 71%
    01:00 +4°C° 0 mm 2 mps 758 mmHg 71%
    02:00 +3°C° 0 mm 2 mps 757 mmHg 71%
    03:00 +2°C° 0 mm 3 mps 757 mmHg 71%
    04:00 +2°C° 0 mm 3 mps 757 mmHg 71%
    05:00 +2°C° 0 mm 3 mps 757 mmHg 71%
    06:00 +2°C° 0 mm 3 mps 756 mmHg 70%
    07:00 +3°C° 0 mm 3 mps 756 mmHg 66%
    08:00 +4°C° 0 mm 4 mps 756 mmHg 62%
    09:00 +5°C° 0 mm 4 mps 756 mmHg 58%
    10:00 +7°C° 0 mm 5 mps 756 mmHg 54%
    11:00 +9°C° 0 mm 5 mps 755 mmHg 50%
    12:00 +12°C° 0 mm 5 mps 755 mmHg 46%
    13:00 +12°C° 0 mm 5 mps 754 mmHg 45%
    14:00 +13°C° 0 mm 5 mps 753 mmHg 44%
    15:00 +14°C° 0 mm 6 mps 752 mmHg 43%
    16:00 +14°C° 0 mm 5 mps 752 mmHg 48%
    17:00 +13°C° 0 mm 5 mps 752 mmHg 53%
    18:00 +12°C° 0 mm 5 mps 752 mmHg 58%
    19:00 +12°C° 0.1 mm 5 mps 752 mmHg 62%
    20:00 +13°C° 0.1 mm 5 mps 752 mmHg 66%
    21:00 +13°C° 0.1 mm 5 mps 752 mmHg 69%
    22:00 +13°C° 0.2 mm 5 mps 752 mmHg 73%
    23:00 +14°C° 0.2 mm 5 mps 751 mmHg 76%
    Show more